Luke AFB, AZ

11:09 AM MST on February 21, 2017 (GMT -0700)
Luke Air Force Base

Weather History for KLUF - October, 2011

Change the Weather History Date:

Saturday, October 29, 2011

  Actual Average Record
Temperature  
Mean Temperature 70 °F -  
Max Temperature 85 °F 84 °F 97 °F (1990)
Min Temperature 56 °F 48 °F 36 °F (1929)
Cooling Degree Days 6    
Growing Degree Days 20 (Base 50)    
Moisture  
Dew Point 37 °F    
Average Humidity 31    
Maximum Humidity 43    
Minimum Humidity 17    
Precipitation  
Precipitation 0.00 in - - ()
Sea Level Pressure  
Sea Level Pressure 29.95 in    
Wind  
Wind Speed 6 mph (NNW)    
Max Wind Speed 9 mph    
Max Gust Speed -    
Visibility 10 miles    
Events      
Averages and records for this station are not official NWS values.
T = Trace of Precipitation, MM = Missing Value Source: NWS Daily Summary

Daily Weather History Graph

Daily Weather History Graph

Search for Another Location

Airport or City:

Trip Planner

Search our weather history database for the weather conditions in past years. The results will help you decide how hot, cold, wet, or windy it might be!

Date:

Astronomy

Oct. 29, 2011 Rise Set
Actual Time 6:45 AM MST 5:40 PM MST
Civil Twilight 6:19 AM MST 6:05 PM MST
Nautical Twilight 5:50 AM MST 6:35 PM MST
Astronomical Twilight 5:21 AM MST 7:04 PM MST
Moon 10:02 AM MST (10/29) 8:17 PM MST (10/29)
Length of Visible Light 11h 46m
Length of Day
10h 54m
Waxing Crescent, 12% of the Moon is Illuminated
Oct 29
Waxing Crescent
Nov 2
First Quarter
Nov 10
Full
Nov 18
Last Quarter
Nov 24
New

Hourly Weather History & Observations

Time (MST) Temp. Dew Point Humidity Pressure Visibility Wind Dir Wind Speed Gust Speed Precip Events Conditions
12:55 AM 61.5 °F 35.2 °F 37% 29.97 in 10.0 mi North 8.1 mph - N/A   Clear
1:55 AM 59.4 °F 34.0 °F 39% 29.96 in 10.0 mi North 5.8 mph - N/A   Clear
2:55 AM 59.4 °F 32.7 °F 37% 29.95 in 10.0 mi NNW 9.2 mph - N/A   Clear
3:55 AM 58.3 °F 32.9 °F 38% 29.95 in 10.0 mi NNW 9.2 mph - N/A   Clear
4:55 AM 57.6 °F 34.7 °F 42% 29.96 in 10.0 mi NNW 5.8 mph - N/A   Clear
5:55 AM 56.8 °F 33.6 °F 42% 29.98 in 10.0 mi NNW 4.6 mph - N/A   Clear
6:55 AM 56.1 °F 33.8 °F 43% 29.99 in 10.0 mi NW 6.9 mph - N/A   Clear
7:55 AM 59.0 °F 35.1 °F 41% 30.01 in 10.0 mi North 3.5 mph - N/A   Clear
8:55 AM 67.5 °F 36.0 °F 31% 30.03 in 10.0 mi Calm Calm - N/A   Clear
9:55 AM 74.1 °F 37.0 °F 26% 30.02 in 10.0 mi NNE 3.5 mph - N/A   Clear
10:55 AM 76.3 °F 37.4 °F 25% 30.01 in 10.0 mi ENE 5.8 mph - N/A   Clear
11:55 AM 80.1 °F 38.7 °F 23% 29.99 in 10.0 mi Calm Calm - N/A   Clear
12:55 PM 82.6 °F 37.4 °F 20% 29.95 in 10.0 mi Calm Calm - N/A   Clear
1:55 PM 83.8 °F 36.3 °F 18% 29.92 in 10.0 mi South 3.5 mph - N/A   Clear
2:55 PM 85.1 °F 37.6 °F 18% 29.91 in 10.0 mi Variable 4.6 mph - N/A   Clear
3:55 PM 85.3 °F 36.3 °F 17% 29.90 in 10.0 mi Variable 3.5 mph - N/A   Clear
4:55 PM 84.9 °F 36.0 °F 17% 29.88 in 10.0 mi WSW 4.6 mph - N/A   Clear
5:55 PM 80.4 °F 39.7 °F 23% 29.90 in 10.0 mi SSW 6.9 mph - N/A   Clear
6:55 PM 76.8 °F 37.9 °F 25% 29.91 in 10.0 mi SW 5.8 mph - N/A   Clear
7:55 PM 72.9 °F 39.4 °F 30% 29.91 in 10.0 mi West 3.5 mph - N/A   Clear
8:55 PM 67.3 °F 40.3 °F 37% 29.92 in 10.0 mi North 4.6 mph - N/A   Clear
9:55 PM 66.9 °F 40.3 °F 38% 29.93 in 10.0 mi North 3.5 mph - N/A   Clear
10:55 PM 66.2 °F 39.0 °F 37% 29.93 in 10.0 mi Calm Calm - N/A   Clear
11:55 PM 62.1 °F 38.8 °F 42% 29.94 in 10.0 mi North 8.1 mph - N/A   Clear